When you browse on this site, cookies collect data to enhance your experience and personalize the content and advertising you see.
Visit our Privacy Policy to learn more. By continuing to use the site, you agree to this use of cookies and data.
  • In Romania
  • List of Countries
  • For 7 days
  • Water Temperature
  • Satellite Maps
  • Weather Map
  • Weather Widgets
  • user-avatar
    Login

    Hourly Weather Vejle

    Today, 26 May, Sunday

    Time Temperature Precipitation Wind Pressure Humidity
    00:00 +8°C° 0 mm 5 mps 751 mmHg 86%
    01:00 +8°C° 0 mm 5 mps 750 mmHg 86%
    02:00 +8°C° 0.1 mm 5 mps 750 mmHg 87%
    03:00 +8°C° 0.1 mm 6 mps 749 mmHg 88%
    04:00 +9°C° 0.1 mm 6 mps 749 mmHg 90%
    05:00 +9°C° 0.4 mm 7 mps 748 mmHg 91%
    06:00 +9°C° 0.4 mm 7 mps 747 mmHg 92%
    07:00 +9°C° 0.4 mm 7 mps 747 mmHg 94%
    08:00 +10°C° 0.4 mm 7 mps 747 mmHg 94%
    09:00 +10°C° 0.4 mm 6 mps 746 mmHg 93%
    10:00 +10°C° 0.4 mm 5 mps 746 mmHg 93%
    11:00 +12°C° 0.1 mm 5 mps 746 mmHg 89%
    12:00 +13°C° 0.1 mm 5 mps 746 mmHg 84%
    13:00 +13°C° 0.1 mm 4 mps 746 mmHg 80%
    14:00 +13°C° 0.5 mm 4 mps 746 mmHg 82%
    15:00 +12°C° 0.5 mm 3 mps 746 mmHg 84%
    16:00 +12°C° 0.5 mm 3 mps 745 mmHg 86%
    17:00 +12°C° 0.3 mm 2 mps 745 mmHg 88%
    18:00 +12°C° 0.3 mm 1 mps 745 mmHg 90%
    19:00 +11°C° 0.3 mm 0 mps 744 mmHg 92%
    20:00 +12°C° 0.2 mm 1 mps 744 mmHg 94%
    21:00 +12°C° 0.2 mm 1 mps 744 mmHg 95%
    22:00 +10°C° 0.2 mm 2 mps 743 mmHg 97%
    23:00 +12°C° 0.2 mm 2 mps 743 mmHg 97%

    Tomorrow, 27 May, Monday

    Time Temperature Precipitation Wind Pressure Humidity
    00:00 +11°C° 0.2 mm 3 mps 743 mmHg 96%
    01:00 +11°C° 0.2 mm 4 mps 743 mmHg 96%
    02:00 +10°C° 0.1 mm 4 mps 743 mmHg 95%
    03:00 +8°C° 0.1 mm 4 mps 743 mmHg 94%
    04:00 +7°C° 0.1 mm 4 mps 743 mmHg 94%
    05:00 +7°C° 0 mm 4 mps 743 mmHg 91%
    06:00 +7°C° 0 mm 4 mps 743 mmHg 89%
    07:00 +7°C° 0 mm 4 mps 744 mmHg 87%
    08:00 +9°C° 0 mm 5 mps 744 mmHg 83%
    09:00 +10°C° 0 mm 5 mps 745 mmHg 78%
    10:00 +11°C° 0 mm 6 mps 745 mmHg 74%
    11:00 +11°C° 0.1 mm 6 mps 745 mmHg 77%
    12:00 +10°C° 0.1 mm 6 mps 745 mmHg 80%
    13:00 +10°C° 0.1 mm 6 mps 745 mmHg 84%
    14:00 +10°C° 0.1 mm 5 mps 746 mmHg 85%
    15:00 +10°C° 0.1 mm 5 mps 746 mmHg 85%
    16:00 +10°C° 0.1 mm 4 mps 746 mmHg 86%
    17:00 +10°C° 0 mm 4 mps 746 mmHg 84%
    18:00 +10°C° 0 mm 4 mps 746 mmHg 81%
    19:00 +10°C° 0 mm 4 mps 746 mmHg 79%
    20:00 +7°C° 0 mm 4 mps 746 mmHg 82%
    21:00 +6°C° 0 mm 4 mps 746 mmHg 85%
    22:00 +4°C° 0 mm 3 mps 747 mmHg 88%
    23:00 +4°C° 0 mm 3 mps 747 mmHg 87%

    Day after tomorrow, 28 May, Tuesday

    Time Temperature Precipitation Wind Pressure Humidity
    00:00 +4°C° 0 mm 3 mps 747 mmHg 87%
    01:00 +4°C° 0 mm 3 mps 747 mmHg 86%
    02:00 +3°C° 0 mm 3 mps 747 mmHg 86%
    03:00 +3°C° 0 mm 3 mps 747 mmHg 86%
    04:00 +3°C° 0 mm 3 mps 747 mmHg 86%
    05:00 +5°C° 0 mm 3 mps 747 mmHg 81%
    06:00 +7°C° 0 mm 3 mps 747 mmHg 75%
    07:00 +8°C° 0 mm 4 mps 747 mmHg 70%
    08:00 +8°C° 0 mm 4 mps 747 mmHg 68%
    09:00 +10°C° 0 mm 4 mps 748 mmHg 67%
    10:00 +10°C° 0 mm 4 mps 748 mmHg 66%
    11:00 +11°C° 0 mm 4 mps 748 mmHg 65%
    12:00 +11°C° 0 mm 4 mps 748 mmHg 64%
    13:00 +12°C° 0 mm 5 mps 749 mmHg 63%
    14:00 +12°C° 0 mm 5 mps 749 mmHg 63%
    15:00 +12°C° 0 mm 5 mps 749 mmHg 63%
    16:00 +12°C° 0 mm 5 mps 749 mmHg 62%
    17:00 +10°C° 0 mm 5 mps 749 mmHg 65%
    18:00 +9°C° 0 mm 5 mps 749 mmHg 68%
    19:00 +8°C° 0 mm 4 mps 750 mmHg 70%
    20:00 +7°C° 0 mm 4 mps 750 mmHg 75%
    21:00 +5°C° 0 mm 3 mps 750 mmHg 80%
    22:00 +3°C° 0 mm 3 mps 751 mmHg 85%
    23:00 +3°C° 0 mm 3 mps 751 mmHg 86%

    29 May, Wednesday

    Time Temperature Precipitation Wind Pressure Humidity
    00:00 +2°C° 0 mm 3 mps 751 mmHg 86%
    01:00 +2°C° 0 mm 3 mps 752 mmHg 87%
    02:00 +2°C° 0 mm 3 mps 752 mmHg 86%
    03:00 +2°C° 0 mm 3 mps 752 mmHg 85%
    04:00 +2°C° 0 mm 3 mps 752 mmHg 84%
    05:00 +3°C° 0 mm 4 mps 752 mmHg 78%
    06:00 +5°C° 0 mm 4 mps 753 mmHg 72%
    07:00 +6°C° 0 mm 4 mps 753 mmHg 66%
    08:00 +7°C° 0 mm 4 mps 754 mmHg 64%
    09:00 +8°C° 0 mm 4 mps 754 mmHg 62%
    10:00 +10°C° 0 mm 4 mps 754 mmHg 60%
    11:00 +11°C° 0 mm 4 mps 755 mmHg 60%
    12:00 +12°C° 0 mm 5 mps 755 mmHg 59%
    13:00 +12°C° 0 mm 5 mps 755 mmHg 59%
    14:00 +12°C° 0 mm 5 mps 755 mmHg 60%
    15:00 +12°C° 0 mm 5 mps 755 mmHg 60%
    16:00 +11°C° 0 mm 6 mps 755 mmHg 61%
    17:00 +10°C° 0 mm 5 mps 755 mmHg 65%
    18:00 +10°C° 0 mm 5 mps 755 mmHg 68%
    19:00 +10°C° 0 mm 4 mps 755 mmHg 72%
    20:00 +7°C° 0 mm 4 mps 755 mmHg 77%
    21:00 +6°C° 0 mm 4 mps 755 mmHg 82%
    22:00 +5°C° 0 mm 3 mps 755 mmHg 87%
    23:00 +5°C° 0 mm 4 mps 755 mmHg 88%

    30 May, Thursday

    Time Temperature Precipitation Wind Pressure Humidity
    00:00 +5°C° 0 mm 4 mps 755 mmHg 88%
    01:00 +5°C° 0 mm 4 mps 755 mmHg 88%
    02:00 +4°C° 0 mm 4 mps 755 mmHg 90%
    03:00 +4°C° 0 mm 3 mps 755 mmHg 92%
    04:00 +3°C° 0 mm 3 mps 755 mmHg 94%
    05:00 +5°C° 0 mm 3 mps 755 mmHg 87%
    06:00 +7°C° 0 mm 3 mps 755 mmHg 80%
    07:00 +9°C° 0 mm 3 mps 756 mmHg 73%
    08:00 +10°C° 0 mm 4 mps 756 mmHg 70%
    09:00 +11°C° 0 mm 4 mps 756 mmHg 66%
    10:00 +12°C° 0 mm 5 mps 756 mmHg 63%
    11:00 +10°C° 0.5 mm 6 mps 756 mmHg 68%
    12:00 +10°C° 0.5 mm 6 mps 756 mmHg 74%
    13:00 +9°C° 0.5 mm 7 mps 756 mmHg 79%
    14:00 +10°C° 0.3 mm 7 mps 756 mmHg 74%
    15:00 +10°C° 0.3 mm 6 mps 756 mmHg 69%
    16:00 +10°C° 0.3 mm 6 mps 756 mmHg 64%
    17:00 +10°C° 0 mm 5 mps 757 mmHg 66%
    18:00 +9°C° 0 mm 5 mps 757 mmHg 67%
    19:00 +8°C° 0 mm 5 mps 757 mmHg 69%
    20:00 +7°C° 0 mm 4 mps 758 mmHg 74%
    21:00 +5°C° 0 mm 4 mps 758 mmHg 79%
    22:00 +3°C° 0 mm 3 mps 759 mmHg 85%
    23:00 +3°C° 0 mm 3 mps 759 mmHg 86%

    31 May, Friday

    Time Temperature Precipitation Wind Pressure Humidity
    00:00 +3°C° 0 mm 3 mps 759 mmHg 87%
    01:00 +2°C° 0 mm 3 mps 759 mmHg 88%
    02:00 +2°C° 0 mm 3 mps 759 mmHg 88%
    03:00 +3°C° 0 mm 2 mps 760 mmHg 89%
    04:00 +3°C° 0 mm 2 mps 760 mmHg 89%
    05:00 +5°C° 0 mm 2 mps 760 mmHg 84%
    06:00 +6°C° 0 mm 2 mps 760 mmHg 78%
    07:00 +8°C° 0 mm 2 mps 760 mmHg 73%
    08:00 +9°C° 0 mm 3 mps 760 mmHg 68%
    09:00 +10°C° 0 mm 3 mps 760 mmHg 63%
    10:00 +12°C° 0 mm 3 mps 760 mmHg 58%
    11:00 +12°C° 0 mm 4 mps 760 mmHg 59%
    12:00 +12°C° 0 mm 4 mps 760 mmHg 60%
    13:00 +12°C° 0 mm 5 mps 760 mmHg 61%
    14:00 +12°C° 0.1 mm 4 mps 759 mmHg 64%
    15:00 +11°C° 0.1 mm 4 mps 759 mmHg 68%
    16:00 +11°C° 0.1 mm 4 mps 758 mmHg 72%
    17:00 +10°C° 0.2 mm 4 mps 758 mmHg 77%
    18:00 +9°C° 0.2 mm 5 mps 757 mmHg 83%
    19:00 +9°C° 0.2 mm 5 mps 756 mmHg 88%
    20:00 +9°C° 0.2 mm 5 mps 756 mmHg 91%
    21:00 +10°C° 0.2 mm 6 mps 755 mmHg 94%
    22:00 +11°C° 0.2 mm 6 mps 755 mmHg 97%
    23:00 +11°C° 0 mm 6 mps 755 mmHg 96%
    Show more